Flag for Canada Weather past 2 weeks in Sarnia, Ontario, Canada

Now
32 °F

Sunny.


Feels Like: 26 °F
Forecast: 31 / 53 °F
Wind: 6 mph from Southeast

Location: Sarnia Airport


UV Index: 5 (Moderate)

Visibility: 9 mi


Pressure: 30.47 "Hg

Humidity: 55%

Dew point: 18 °F

Location of SarniaLocation

Historic Weather in Sarnia

°F

Sarnia temperature yesterday

Maximum temperature yesterday: 32 °F (at 1:00 AM)
Minimum temperature yesterday: 27 °F (at 10:00 AM)
Average temperature yesterday: 29 °F

Past Weeks' High & Low Weather Summary

 TemperatureHumidityPressure
High72 °F (Apr 13, 2:00 PM)100% (Apr 4, 8:00 AM)30.50 "Hg (Apr 4, 8:00 AM)
Low21 °F (Apr 16, 4:00 AM)25% (Apr 11, 3:00 PM)29.41 "Hg (Apr 4, 2:00 PM)
Average42 °F71%29.91 "Hg
* Reported Apr 1 8:00 PM — Apr 16 8:00 PM, Sarnia, Weather by CustomWeather, © 2014

Note: Actual official high and low records may vary slightly from our data, if they occured in-between our weather recording intervals... More about our weather records

Advertising

Historic Weather Conditions — Data for Previous 24 hours

 ConditionsComfort  
Time TempWeatherWind HumidityBarometerVisibility
8:00 PM
Apr 16
36 °FSunny.9 mph41%30.46 "Hg9 mi
7:00 PM37 °FSunny.12 mph35%30.45 "Hg9 mi
6:00 PM39 °FSunny.13 mph48%30.44 "Hg9 mi
5:00 PM41 °FScattered clouds.13 mph49%30.44 "Hg9 mi
4:00 PM39 °FBroken clouds.10 mph39%30.44 "Hg9 mi
3:00 PM39 °FSunny.7 mph45%30.46 "Hg9 mi
2:00 PM37 °FPassing clouds.8 mph52%30.47 "Hg9 mi
1:00 PM36 °FSunny.No wind44%30.48 "Hg9 mi
12:00 PM36 °FSunny.9 mph48%30.50 "Hg9 mi
11:00 AM34 °FSunny.5 mph44%30.49 "Hg9 mi
10:00 AM32 °FSunny.6 mph44%30.48 "Hg9 mi
9:00 AM30 °FSunny.6 mph55%30.46 "Hg9 mi
8:00 AM25 °FSunny.5 mph69%30.43 "Hg9 mi
7:00 AM21 °FClear.5 mph80%30.40 "Hg9 mi
6:00 AM21 °FClear.2 mph80%30.37 "Hg9 mi
5:00 AM21 °FClear.3 mph80%30.33 "Hg9 mi
4:00 AM21 °FClear.3 mph80%30.31 "Hg9 mi
3:00 AM23 °FClear.5 mph74%30.28 "Hg9 mi
2:00 AM23 °FClear.2 mph68%30.28 "Hg9 mi
1:00 AM27 °FClear.6 mph54%30.27 "Hg9 mi
12:00 AM27 °FClear.10 mph54%30.26 "Hg9 mi
11:00 PM
Apr 15
27 °FClear.13 mph54%30.24 "Hg9 mi
10:00 PM27 °FClear.15 mph54%30.22 "Hg9 mi
9:00 PM28 °FSunny.18 mph47%30.18 "Hg9 mi
Weather by CustomWeather, © 2014

See weather overview